NITRO32 KSKA-KGTF

Flight info

Callsign NITRO32
Flight time 0h 34m
Altitude 35000
Route MLP GTF
Aircraft F15/M-VGD/N

Departure

Time 2026-04-20 05:56
Airport Fairchild Air Force Base (KSKA)

Arrival

Time 2026-04-20 06:30
Airport Great Falls International Airport (KGTF)
Time Latitude Longitude Altitude Speed Heading
2026-04-20 05:55 47.60833 -117.67888 2465 ft 0 kts 66°
2026-04-20 05:55 47.61009 -117.67306 2461 ft 145 kts 65°
2026-04-20 05:56 47.61606 -117.65247 2984 ft 280 kts 66°
2026-04-20 05:56 47.62514 -117.62071 5067 ft 383 kts 67°
2026-04-20 05:56 47.63485 -117.58678 10218 ft 344 kts 66°
2026-04-20 05:56 47.64377 -117.55570 16000 ft 298 kts 68°
2026-04-20 05:57 47.65152 -117.52959 21324 ft 293 kts 62°
2026-04-20 05:57 47.66392 -117.50175 23682 ft 350 kts 55°
2026-04-20 05:57 47.67784 -117.46990 25737 ft 386 kts 73°
2026-04-20 05:57 47.68249 -117.42910 28155 ft 416 kts 86°
2026-04-20 05:58 47.68251 -117.38554 31245 ft 424 kts 98°
2026-04-20 05:58 47.67884 -117.34162 34350 ft 443 kts 99°
2026-04-20 05:58 47.67476 -117.29510 36574 ft 465 kts 99°
2026-04-20 05:58 47.67037 -117.24591 37931 ft 512 kts 101°
2026-04-20 05:59 47.66418 -117.19021 38349 ft 580 kts 101°
2026-04-20 05:59 47.65686 -117.12675 37536 ft 668 kts 101°
2026-04-20 05:59 47.64853 -117.05517 37557 ft 736 kts 101°
2026-04-20 05:59 47.63935 -116.97725 37827 ft 798 kts 101°
2026-04-20 06:00 47.62965 -116.89323 38468 ft 856 kts 101°
2026-04-20 06:00 47.61914 -116.80323 39151 ft 919 kts 101°
2026-04-20 06:00 47.60766 -116.70599 38979 ft 995 kts 101°
2026-04-20 06:00 47.59530 -116.60226 38123 ft 1078 kts 101°
2026-04-20 06:01 47.58175 -116.48924 37119 ft 1121 kts 101°
2026-04-20 06:01 47.56857 -116.37865 37186 ft 1061 kts 101°
2026-04-20 06:01 47.55608 -116.27385 37317 ft 1007 kts 101°
2026-04-20 06:01 47.54420 -116.17406 37369 ft 963 kts 101°
2026-04-20 06:02 47.53281 -116.07821 37365 ft 930 kts 101°
2026-04-20 06:02 47.52181 -115.98542 37360 ft 902 kts 101°
2026-04-20 06:02 47.51119 -115.89548 37382 ft 875 kts 101°
2026-04-20 06:02 47.50088 -115.80799 37406 ft 850 kts 101°
2026-04-20 06:03 47.49093 -115.72310 37443 ft 826 kts 101°
2026-04-20 06:03 47.48130 -115.64067 37497 ft 803 kts 101°
2026-04-20 06:03 47.47196 -115.56038 37561 ft 781 kts 101°
2026-04-20 06:03 47.46311 -115.48222 37524 ft 764 kts 98°
2026-04-20 06:04 47.46020 -115.40451 37416 ft 752 kts 89°
2026-04-20 06:04 47.46199 -115.32805 37338 ft 738 kts 89°
2026-04-20 06:04 47.46380 -115.25285 37256 ft 725 kts 89°
2026-04-20 06:04 47.46559 -115.17903 37175 ft 714 kts 89°
2026-04-20 06:05 47.46500 -115.10637 37067 ft 702 kts 95°
2026-04-20 06:05 47.46167 -115.03479 36970 ft 694 kts 95°
2026-04-20 06:05 47.45837 -114.96411 36854 ft 687 kts 95°
2026-04-20 06:05 47.45509 -114.89406 36744 ft 681 kts 95°
2026-04-20 06:06 47.45183 -114.82438 36627 ft 677 kts 95°
2026-04-20 06:06 47.44860 -114.75528 36495 ft 673 kts 95°
2026-04-20 06:06 47.44539 -114.68626 36359 ft 680 kts 95°
2026-04-20 06:06 47.44191 -114.61328 36295 ft 746 kts 95°
2026-04-20 06:07 47.43815 -114.53581 36305 ft 757 kts 95°
2026-04-20 06:07 47.43440 -114.45838 36334 ft 755 kts 95°
2026-04-20 06:07 47.42689 -114.30372 36175 ft 752 kts 95°
2026-04-20 06:08 47.41944 -114.15010 36061 ft 748 kts 95°
2026-04-20 06:08 47.41209 -113.99754 35996 ft 742 kts 95°
2026-04-20 06:09 47.40493 -113.84624 35896 ft 737 kts 95°
2026-04-20 06:09 47.39760 -113.69245 35835 ft 798 kts 95°
2026-04-20 06:10 47.39343 -113.60750 35823 ft 864 kts 95°
2026-04-20 06:10 47.38880 -113.51544 35859 ft 939 kts 95°
2026-04-20 06:10 47.38373 -113.41514 35650 ft 1023 kts 95°
2026-04-20 06:10 47.37822 -113.30599 35432 ft 1106 kts 95°
2026-04-20 06:11 47.37225 -113.18891 35278 ft 1181 kts 95°
2026-04-20 06:11 47.36712 -113.06467 32237 ft 1220 kts 94°
2026-04-20 06:11 47.36222 -112.94334 29090 ft 1150 kts 94°
2026-04-20 06:11 47.35826 -112.83791 27087 ft 824 kts 93°
2026-04-20 06:12 47.35746 -112.76944 25895 ft 557 kts 90°
2026-04-20 06:12 47.35913 -112.71409 25055 ft 526 kts 88°
2026-04-20 06:12 47.36106 -112.66160 24364 ft 499 kts 88°
2026-04-20 06:12 47.36267 -112.61177 23693 ft 477 kts 88°
2026-04-20 06:13 47.36482 -112.56003 22904 ft 542 kts 87°
2026-04-20 06:13 47.36734 -112.50045 22053 ft 605 kts 87°
2026-04-20 06:13 47.37003 -112.43735 21350 ft 614 kts 87°
2026-04-20 06:13 47.37263 -112.37420 20802 ft 622 kts 87°
2026-04-20 06:14 47.37521 -112.31006 19987 ft 622 kts 87°
2026-04-20 06:14 47.37761 -112.24850 19283 ft 581 kts 87°
2026-04-20 06:14 47.37986 -112.19167 18611 ft 531 kts 87°
2026-04-20 06:14 47.38175 -112.13906 18118 ft 499 kts 87°
2026-04-20 06:15 47.38350 -112.08911 17672 ft 476 kts 86°
2026-04-20 06:15 47.38529 -112.04168 17171 ft 455 kts 88°
2026-04-20 06:15 47.38672 -111.99525 16639 ft 445 kts 86°
2026-04-20 06:15 47.38884 -111.95142 16131 ft 402 kts 86°
2026-04-20 06:16 47.38999 -111.91232 15570 ft 373 kts 89°
2026-04-20 06:16 47.39196 -111.87478 15014 ft 357 kts 82°
2026-04-20 06:16 47.39500 -111.84182 14448 ft 296 kts 85°
2026-04-20 06:16 47.39459 -111.81004 14079 ft 346 kts 89°
2026-04-20 06:17 47.39657 -111.77204 13732 ft 374 kts 83°
2026-04-20 06:17 47.39940 -111.73440 13320 ft 365 kts 86°
2026-04-20 06:17 47.40063 -111.69717 12768 ft 361 kts 81°
2026-04-20 06:17 47.40730 -111.66173 12192 ft 358 kts 73°
2026-04-20 06:18 47.41383 -111.62955 12838 ft 254 kts 72°
2026-04-20 06:18 47.41940 -111.60870 13279 ft 194 kts 50°
2026-04-20 06:18 47.43126 -111.59770 12048 ft 261 kts 358°
2026-04-20 06:18 47.45274 -111.59257 11314 ft 364 kts 16°
2026-04-20 06:19 47.47457 -111.57495 10651 ft 325 kts 38°
2026-04-20 06:19 47.48969 -111.55355 10072 ft 294 kts 41°
2026-04-20 06:19 47.50412 -111.53245 9774 ft 288 kts 42°
2026-04-20 06:19 47.51821 -111.51176 9380 ft 285 kts 42°
2026-04-20 06:20 47.53212 -111.49108 8992 ft 282 kts 42°
2026-04-20 06:20 47.54586 -111.47054 8610 ft 276 kts 42°
2026-04-20 06:20 47.55826 -111.45179 8138 ft 247 kts 42°
2026-04-20 06:20 47.57041 -111.43339 7692 ft 252 kts 43°
2026-04-20 06:21 47.58276 -111.41488 7312 ft 246 kts 41°
2026-04-20 06:21 47.59368 -111.39817 6934 ft 210 kts 45°
2026-04-20 06:21 47.60292 -111.38255 6686 ft 202 kts 48°
2026-04-20 06:21 47.61147 -111.36739 6672 ft 183 kts 48°
2026-04-20 06:22 47.61665 -111.35104 6576 ft 181 kts 88°
2026-04-20 06:22 47.61480 -111.33170 6599 ft 204 kts 113°
2026-04-20 06:22 47.60793 -111.31050 6538 ft 256 kts 130°
2026-04-20 06:22 47.59571 -111.29044 6418 ft 269 kts 139°
2026-04-20 06:23 47.58292 -111.27245 6252 ft 242 kts 141°
2026-04-20 06:23 47.56999 -111.25736 6038 ft 230 kts 163°
2026-04-20 06:23 47.55530 -111.25541 5774 ft 203 kts 229°
2026-04-20 06:23 47.55042 -111.27315 5365 ft 191 kts 248°
2026-04-20 06:24 47.54365 -111.28832 4996 ft 166 kts 227°
2026-04-20 06:24 47.53458 -111.30064 4584 ft 193 kts 223°
2026-04-20 06:24 47.52443 -111.31352 4578 ft 190 kts 222°
2026-04-20 06:24 47.51397 -111.32650 4393 ft 201 kts 221°
2026-04-20 06:25 47.50296 -111.34013 4155 ft 211 kts 221°
2026-04-20 06:25 47.49233 -111.35420 3935 ft 196 kts 229°
2026-04-20 06:25 47.48347 -111.36852 3930 ft 183 kts 228°
2026-04-20 06:25 47.47418 -111.38241 4498 ft 201 kts 227°
2026-04-20 06:26 47.46409 -111.39887 5054 ft 229 kts 245°
2026-04-20 06:26 47.46365 -111.42237 5211 ft 263 kts 303°
2026-04-20 06:26 47.47536 -111.44610 5248 ft 303 kts 306°
2026-04-20 06:26 47.49422 -111.45851 5338 ft 325 kts 11°
2026-04-20 06:27 47.51386 -111.43972 4889 ft 353 kts 42°
2026-04-20 06:27 47.53146 -111.41485 4953 ft 346 kts 43°
2026-04-20 06:27 47.54852 -111.39025 5032 ft 339 kts 43°
2026-04-20 06:27 47.56435 -111.36505 5012 ft 326 kts 63°
2026-04-20 06:28 47.56509 -111.33417 4982 ft 300 kts 128°
2026-04-20 06:28 47.55676 -111.31848 4939 ft 287 kts 133°
2026-04-20 06:28 47.54360 -111.29677 4893 ft 281 kts 136°
2026-04-20 06:28 47.52706 -111.28681 4796 ft 260 kts 210°
2026-04-20 06:29 47.51688 -111.30577 4771 ft 225 kts 246°
2026-04-20 06:29 47.51008 -111.32406 4303 ft 192 kts 232°
2026-04-20 06:29 47.50014 -111.33873 3972 ft 206 kts 223°
2026-04-20 06:29 47.49020 -111.35293 3713 ft 194 kts 227°
2026-04-20 06:30 47.48222 -111.36490 3674 ft 123 kts 224°
2026-04-20 06:30 47.47830 -111.37064 3678 ft 51 kts 225°
2026-04-20 06:30 47.47644 -111.37338 3682 ft 22 kts 225°
2026-04-20 06:30 47.47537 -111.37391 3683 ft 14 kts 137°
2026-04-20 06:31 47.47498 -111.37283 3682 ft 11 kts 68°
2026-04-20 06:31 47.47558 -111.37185 3681 ft 15 kts 44°
2026-04-20 06:31 47.47642 -111.37064 3680 ft 19 kts 46°
2026-04-20 06:31 47.47957 -111.36608 3677 ft 79 kts 44°
2026-04-20 06:32 47.48231 -111.36186 3674 ft 28 kts 46°
2026-04-20 06:32 47.48341 -111.36035 3672 ft 23 kts 43°
2026-04-20 06:32 47.48459 -111.35855 3671 ft 24 kts 42°
2026-04-20 06:32 47.48565 -111.35697 3670 ft 20 kts 48°
2026-04-20 06:33 47.48652 -111.35578 3669 ft 15 kts 42°
2026-04-20 06:33 47.48632 -111.35513 3669 ft 7 kts 139°
2026-04-20 06:33 47.48579 -111.35463 3669 ft 9 kts 199°
2026-04-20 06:33 47.48564 -111.35475 3669 ft 0 kts 227°